Fort Myers, FL

5:01 PM EDT on September 26, 2016 (GMT -0400)
Page

Weather History for KFMY - October, 2011

Change the Weather History Date:

Wednesday, October 26, 2011

  Actual Average Record
Temperature  
Mean Temperature 74 °F 76 °F  
Max Temperature 86 °F 85 °F 91 °F (1981)
Min Temperature 62 °F 67 °F 49 °F (1903)
Degree Days  
Heating Degree Days 0 0  
Month to date heating degree days 0 0  
Since 1 July heating degree days 0 0  
Cooling Degree Days 9 11  
Month to date cooling degree days 292 350  
Year to date cooling degree days 3812 3596  
Growing Degree Days 24 (Base 50)    
Moisture  
Dew Point 61 °F    
Average Humidity 68    
Maximum Humidity 93    
Minimum Humidity 44    
Precipitation  
Precipitation 0.00 in 0.07 in 1.33 in (1969)
Month to date precipitation 8.36 2.53  
Year to date precipitation 62.80 51.91  
Sea Level Pressure  
Sea Level Pressure 30.01 in    
Wind  
Wind Speed 6 mph (ENE)    
Max Wind Speed 14 mph    
Max Gust Speed 18 mph    
Visibility 10 miles    
Events      
T = Trace of Precipitation, MM = Missing Value Source: NWS Daily Summary

Daily Weather History Graph

Daily Weather History Graph

Search for Another Location

Airport or City:

Trip Planner

Search our weather history database for the weather conditions in past years. The results will help you decide how hot, cold, wet, or windy it might be!

Date:

Astronomy

Oct. 26, 2011 Rise Set
Actual Time 7:32 AM EDT 6:49 PM EDT
Civil Twilight 7:09 AM EDT 7:13 PM EDT
Nautical Twilight 6:41 AM EDT 7:40 PM EDT
Astronomical Twilight 6:14 AM EDT 8:07 PM EDT
Moon 7:14 AM EDT 6:37 PM EDT
Length of Visible Light 12h 04m
Length of Day
11h 16m
Waning Crescent, 0% of the Moon is Illuminated
Oct 26
Waning Crescent
Oct 26
New
Nov 2
First Quarter
Nov 10
Full
Nov 18
Last Quarter

Hourly Weather History & Observations

Time (EDT) Temp. Heat Index Dew Point Humidity Pressure Visibility Wind Dir Wind Speed Gust Speed Precip Events Conditions
12:53 AM 66.0 °F - 61.0 °F 84% 30.08 in 10.0 mi NE 4.6 mph - N/A   Clear
1:53 AM 64.9 °F - 61.0 °F 87% 30.06 in 10.0 mi NE 4.6 mph - N/A   Clear
2:53 AM 64.9 °F - 60.1 °F 84% 30.04 in 10.0 mi NE 5.8 mph - N/A   Clear
3:53 AM 64.9 °F - 61.0 °F 87% 30.03 in 10.0 mi NE 5.8 mph - N/A   Clear
4:53 AM 64.9 °F - 61.0 °F 87% 30.02 in 10.0 mi ENE 5.8 mph - N/A   Clear
5:53 AM 64.0 °F - 60.1 °F 87% 30.02 in 10.0 mi NE 5.8 mph - N/A   Clear
7:53 AM 63.0 °F - 61.0 °F 93% 30.05 in 10.0 mi NE 5.8 mph - N/A   Clear
8:53 AM 68.0 °F - 62.1 °F 81% 30.06 in 10.0 mi NE 5.8 mph - N/A   Clear
9:53 AM 73.9 °F - 63.0 °F 68% 30.06 in 10.0 mi ENE 6.9 mph - N/A   Clear
11:53 AM 81.0 °F 82.2 °F 63.0 °F 54% 30.05 in 10.0 mi East 13.8 mph - N/A   Clear
12:53 PM 84.0 °F 84.5 °F 62.1 °F 47% 30.02 in 10.0 mi ENE 10.4 mph 16.1 mph N/A   Scattered Clouds
1:53 PM 81.0 °F 81.9 °F 62.1 °F 52% 29.99 in 10.0 mi East 9.2 mph - N/A   Scattered Clouds
2:53 PM 84.9 °F 84.8 °F 60.1 °F 43% 29.97 in 10.0 mi Calm Calm - N/A   Scattered Clouds
3:53 PM 84.9 °F 85.0 °F 61.0 °F 44% 29.96 in 10.0 mi ENE 9.2 mph - N/A   Partly Cloudy
4:53 PM 84.9 °F 85.4 °F 62.1 °F 46% 29.94 in 10.0 mi NE 9.2 mph - N/A   Mostly Cloudy
5:53 PM 82.0 °F 83.0 °F 62.1 °F 51% 29.94 in 10.0 mi ENE 4.6 mph - N/A   Scattered Clouds
6:53 PM 80.1 °F 81.1 °F 61.0 °F 52% 29.95 in 10.0 mi East 4.6 mph - N/A   Scattered Clouds
7:53 PM 77.0 °F - 61.0 °F 58% 29.96 in 10.0 mi East 3.5 mph - N/A   Clear
8:53 PM 73.9 °F - 61.0 °F 64% 29.97 in 10.0 mi East 3.5 mph - N/A   Clear
9:53 PM 72.0 °F - 61.0 °F 68% 29.99 in 10.0 mi ESE 3.5 mph - N/A   Clear
10:53 PM 71.1 °F - 62.1 °F 73% 29.99 in 10.0 mi East 4.6 mph - N/A   Clear
11:53 PM 70.0 °F - 62.1 °F 76% 29.98 in 10.0 mi ESE 3.5 mph - N/A   Clear